Weather History for Marion, OH

Change the Weather History Date:

Thursday, June 27, 2013

  Actual Average (KDLZ) Record (KDLZ)
Temperature  
Mean Temperature 75 °F -  
Max Temperature 82 °F 83 °F 99 °F (1944)
Min Temperature 68 °F 58 °F 44 °F (1988)
Cooling Degree Days 10    
Growing Degree Days 25 (Base 50)    
Moisture  
Dew Point 68 °F    
Average Humidity 87    
Maximum Humidity 96    
Minimum Humidity 61    
Precipitation  
Precipitation 0.29 in - - ()
Sea Level Pressure  
Sea Level Pressure 29.74 in    
Wind  
Wind Speed 6 mph (WSW)    
Max Wind Speed 12 mph    
Max Gust Speed 23 mph    
Visibility 4 miles    
Events Fog , Rain    
Averages and records for this station are not official NWS values.
T = Trace of Precipitation, MM = Missing Value Source: NWS Daily Summary

Daily Weather History Graph

Daily Weather History Graph

Search for Another Location

Airport:

Trip Planner

Search our weather history database for the weather conditions in past years. The results will help you decide how hot, cold, wet, or windy it might be!

Date:

Astronomy

Jun. 27, 2013 Rise Set
Actual Time 6:03 AM EDT 9:07 PM EDT
Civil Twilight 5:30 AM EDT 9:40 PM EDT
Nautical Twilight 4:47 AM EDT 10:22 PM EDT
Astronomical Twilight 3:57 AM EDT 11:12 PM EDT
Moon No Moon Rise 11:04 AM EDT
Length of Visible Light 16h 10m
Length of Day
15h 03m
Waning Gibbous, 76% of the Moon is Illuminated
Jun 27
Waning Gibbous
Jun 30
Last Quarter
Jul 8
New
Jul 15
First Quarter
Jul 22
Full

Hourly Weather History & Observations

Time (EDT) Temp. Heat Index Dew Point Humidity Pressure Visibility Wind Dir Wind Speed Gust Speed Precip Events Conditions
12:53 AM 69.1 °F - 68.0 °F 96% 29.80 in 4.0 mi South 8.1 mph - 0.00 in Rain Light Rain
1:53 AM 69.1 °F - 68.0 °F 96% 29.78 in 4.0 mi South 5.8 mph - 0.03 in Rain Light Rain
2:04 AM 69.8 °F - 66.2 °F 88% 29.79 in 4.0 mi South 5.8 mph - 0.00 in Rain Light Rain
2:53 AM 68.0 °F - 66.9 °F 96% 29.76 in 4.0 mi SSE 4.6 mph - 0.00 in   Overcast
3:53 AM 68.0 °F - 66.9 °F 96% 29.75 in 4.0 mi South 5.8 mph - 0.00 in   Overcast
4:17 AM 68.0 °F - 66.2 °F 94% 29.76 in 3.0 mi South 4.6 mph - 0.00 in   Overcast
4:29 AM 68.0 °F - 66.2 °F 94% 29.77 in 4.0 mi SSW 5.8 mph - 0.00 in   Overcast
4:43 AM 68.0 °F - 66.2 °F 94% 29.76 in 3.0 mi South 4.6 mph - 0.00 in   Overcast
4:53 AM 68.0 °F - 66.9 °F 96% 29.75 in 3.0 mi South 4.6 mph - 0.00 in   Overcast
5:10 AM 68.0 °F - 66.2 °F 94% 29.76 in 3.0 mi South 4.6 mph - N/A   Overcast
5:21 AM 69.8 °F - 66.2 °F 88% 29.76 in 3.0 mi SSW 5.8 mph - 0.01 in Rain Light Rain
5:29 AM 69.8 °F - 68.0 °F 94% 29.76 in 3.0 mi SSW 3.5 mph - 0.01 in Rain Light Rain
5:45 AM 69.8 °F - 66.2 °F 88% 29.76 in 3.0 mi South 5.8 mph - 0.01 in   Overcast
5:53 AM 69.1 °F - 68.0 °F 96% 29.74 in 3.0 mi South 4.6 mph - 0.01 in   Overcast
6:08 AM 69.8 °F - 66.2 °F 88% 29.76 in 2.5 mi South 5.8 mph - 0.01 in Rain Rain
6:28 AM 69.8 °F - 68.0 °F 94% 29.76 in 3.0 mi SSW 4.6 mph - 0.02 in Rain Light Rain
6:45 AM 69.8 °F - 68.0 °F 94% 29.76 in 2.0 mi South 5.8 mph - 0.02 in   Overcast
6:53 AM 69.1 °F - 68.0 °F 96% 29.75 in 2.0 mi Variable 5.8 mph - 0.02 in   Overcast
7:17 AM 69.8 °F - 68.0 °F 94% 29.76 in 2.0 mi SW 6.9 mph - N/A   Overcast
7:23 AM 69.8 °F - 68.0 °F 94% 29.76 in 1.0 mi SW 5.8 mph - 0.05 in Rain Rain
7:30 AM 69.8 °F - 68.0 °F 94% 29.76 in 0.5 mi SW 4.6 mph - 0.12 in Fog , Rain Rain
7:40 AM 69.8 °F - 68.0 °F 94% 29.76 in 2.0 mi SW 5.8 mph - 0.12 in Rain Light Rain
7:53 AM 70.0 °F - 68.0 °F 93% 29.75 in 1.5 mi SW 6.9 mph - 0.13 in Rain Light Rain
8:08 AM 69.8 °F - 68.0 °F 94% 29.76 in 2.5 mi WSW 4.6 mph - 0.00 in   Overcast
8:23 AM 69.8 °F - 68.0 °F 94% 29.76 in 1.0 mi West 4.6 mph - 0.01 in Rain Light Rain
8:35 AM 69.8 °F - 68.0 °F 94% 29.76 in 0.8 mi WSW 5.8 mph - 0.05 in Rain Rain
8:44 AM 69.8 °F - 68.0 °F 94% 29.75 in 1.2 mi WSW 6.9 mph - 0.06 in Rain Light Rain
8:53 AM 70.0 °F - 68.0 °F 93% 29.74 in 2.0 mi WSW 6.9 mph - 0.06 in   Overcast
9:08 AM 69.8 °F - 68.0 °F 94% 29.76 in 1.8 mi WSW 5.8 mph - 0.00 in Rain Light Rain
9:16 AM 71.6 °F - 69.8 °F 94% 29.76 in 2.0 mi West 4.6 mph - 0.00 in   Overcast
9:53 AM 71.1 °F - 69.1 °F 93% 29.75 in 2.0 mi West 8.1 mph - 0.00 in   Overcast
10:37 AM 71.6 °F - 69.8 °F 94% 29.75 in 2.5 mi WNW 5.8 mph - N/A   Overcast
10:46 AM 71.6 °F - 69.8 °F 94% 29.75 in 3.0 mi WNW 6.9 mph - N/A   Overcast
10:53 AM 72.0 °F - 69.1 °F 91% 29.74 in 3.0 mi West 5.8 mph - N/A   Overcast
11:02 AM 73.4 °F - 69.8 °F 88% 29.75 in 3.0 mi West 6.9 mph - N/A   Overcast
11:43 AM 73.4 °F - 69.8 °F 88% 29.75 in 4.0 mi West 4.6 mph - N/A   Haze
11:53 AM 75.9 °F - 70.0 °F 82% 29.73 in 4.0 mi WNW 4.6 mph - N/A   Haze
12:44 PM 77.0 °F - 69.8 °F 78% 29.76 in 5.0 mi NW 4.6 mph - N/A   Haze
12:53 PM 77.0 °F - 70.0 °F 79% 29.74 in 6.0 mi WNW 5.8 mph - N/A   Haze
1:53 PM 80.1 °F 83.2 °F 70.0 °F 71% 29.73 in 8.0 mi WNW 6.9 mph - N/A   Scattered Clouds
2:12 PM 80.6 °F 83.2 °F 68.0 °F 65% 29.74 in 8.0 mi NW 6.9 mph - N/A   Mostly Cloudy
2:25 PM 80.6 °F 82.7 °F 66.2 °F 61% 29.74 in 8.0 mi North 8.1 mph - N/A   Mostly Cloudy
2:53 PM 82.9 °F 86.5 °F 69.1 °F 63% 29.72 in 9.0 mi NNW 9.2 mph - N/A   Scattered Clouds
3:53 PM 80.1 °F 83.6 °F 71.1 °F 74% 29.71 in 8.0 mi North 8.1 mph - 0.00 in Rain Light Rain
4:04 PM 75.2 °F - 71.6 °F 89% 29.73 in 1.8 mi NNE 9.2 mph 23.0 mph 0.02 in Rain Rain
4:12 PM 75.2 °F - 71.6 °F 89% 29.73 in 3.0 mi NNW 3.5 mph 16.1 mph 0.02 in Rain Light Rain
4:53 PM 78.1 °F - 71.1 °F 79% 29.70 in 4.0 mi North 6.9 mph - 0.04 in Rain Light Rain
5:53 PM 80.1 °F 83.6 °F 71.1 °F 74% 29.69 in 8.0 mi North 3.5 mph - 0.00 in   Overcast
6:53 PM 81.0 °F 84.1 °F 69.1 °F 67% 29.68 in 9.0 mi WNW 11.5 mph 20.7 mph N/A   Partly Cloudy
7:53 PM 81.0 °F 83.8 °F 68.0 °F 65% 29.69 in 9.0 mi WNW 9.2 mph - N/A   Partly Cloudy
8:53 PM 75.0 °F - 64.9 °F 71% 29.69 in 10.0 mi NE 11.5 mph - N/A   Mostly Cloudy
9:53 PM 71.1 °F - 64.9 °F 81% 29.71 in 10.0 mi NNE 8.1 mph - N/A   Mostly Cloudy
10:53 PM 69.1 °F - 64.9 °F 87% 29.70 in 10.0 mi Calm Calm - N/A   Clear
11:53 PM 69.1 °F - 66.0 °F 90% 29.66 in 10.0 mi SSW 5.8 mph - N/A   Clear